Theta_e
353 356 362 360 361 362 362 362 363 363 363 361 361 359 356 353 353 353 353 352 351 351 348 346 346 344 343 341 340 341 343 347 350 353 353 350 348 350 349 353 357 349 353
356 358 361 361 360 360 359 360 361 361 360 358 358 356 353 352 351 352 352 351 350 349 346 346 344 342 340 338 337 337 338 343 346 348 351 350 356 354 356 355 355 353 355
355 359 357 360 358 359 360 357 356 357 358 357 355 353 350 351 350 352 351 350 350 347 344 342 342 341 341 340 339 337 338 342 344 346 348 347 355 357 355 354 354 353 354
356 358 358 358 357 357 356 358 358 357 356 355 353 349 347 349 350 351 351 350 347 344 342 343 342 341 340 340 340 339 339 339 344 347 334 336 351 353 354 354 354 354 353
355 357 359 357 356 356 356 357 355 355 355 352 349 346 346 348 350 350 350 349 345 342 342 342 342 340 340 339 339 338 337 338 344 338 329 329 340 344 345 345 348 345 342
353 357 357 355 354 355 354 353 355 354 352 348 346 345 345 346 349 350 349 347 342 340 340 341 340 339 339 338 337 336 336 336 339 329 330 331 338 339 339 339 339 339 337
350 353 356 355 355 355 354 353 354 353 349 347 345 345 345 346 349 348 347 343 340 339 339 340 338 338 337 336 336 335 334 334 330 329 328 328 331 337 336 333 333 333 332
348 349 351 354 354 354 355 352 352 351 348 346 345 344 343 345 346 343 342 341 340 338 338 338 337 335 334 334 334 332 332 332 330 327 326 328 334 332 332 335 332 331 330
345 346 348 350 352 353 352 351 350 348 347 345 346 345 344 342 342 340 340 340 339 337 337 336 335 332 331 330 330 329 330 332 330 327 325 328 329 330 333 334 334 335 335
347 346 348 352 350 352 350 348 349 347 346 344 343 342 343 341 339 338 343 340 338 336 336 334 330 328 328 327 326 326 330 334 329 326 325 326 327 327 330 333 335 335 335
342 343 344 344 351 352 350 347 348 345 343 342 341 341 343 336 335 335 339 337 335 336 335 332 330 330 332 332 330 327 332 327 327 326 325 327 325 326 328 330 332 333 335
341 343 344 345 347 348 348 349 346 338 336 338 337 337 336 340 340 337 340 338 338 338 335 334 333 333 334 332 331 336 327 327 326 326 326 326 325 327 329 329 331 333 335
339 340 338 340 345 343 347 352 343 340 340 337 341 342 345 340 340 338 336 339 339 338 337 333 334 333 333 331 329 328 328 327 326 325 326 325 324 327 330 330 330 329 330
335 337 337 338 339 343 341 340 338 334 335 335 337 344 340 339 340 341 337 340 338 336 332 335 327 330 329 329 327 327 327 326 325 324 326 325 324 329 332 329 330 326 328
333 335 335 338 337 337 338 336 335 334 333 334 335 336 335 336 335 334 333 335 334 333 330 329 326 325 323 324 327 326 326 326 325 324 325 326 327 328 328 327 324 326 326
334 334 334 336 338 337 336 336 335 336 336 333 332 332 333 332 330 332 332 331 328 327 325 322 322 321 321 323 325 326 326 325 324 324 324 326 329 328 325 325 326 325 326
328 330 331 331 332 334 330 333 332 332 333 331 330 329 332 330 329 332 328 328 326 326 324 323 321 322 322 324 322 323 322 324 323 323 324 324 327 328 327 327 325 325 325
324 325 329 328 330 332 331 330 329 329 329 328 329 326 326 325 326 326 326 326 328 327 325 322 323 320 321 317 317 317 318 323 323 323 322 324 324 325 326 326 324 323 323
325 326 325 326 325 327 328 327 328 330 327 331 330 329 326 323 322 322 322 322 325 323 321 321 320 317 315 315 315 315 318 321 322 321 321 322 323 323 325 325 323 322 322
325 326 326 326 326 326 324 325 322 321 322 324 326 326 327 327 326 328 326 327 327 325 324 323 323 318 317 315 312 316 321 321 321 320 320 320 320 321 322 325 327 325 321
325 324 325 325 326 323 318 318 317 316 319 320 322 324 322 321 320 325 320 321 325 325 326 326 323 321 319 319 318 316 318 321 321 319 323 322 321 319 321 321 322 323 325
322 324 325 325 325 323 318 319 318 318 318 318 320 321 322 320 321 319 323 320 323 320 325 326 325 322 319 319 314 314 309 315 316 319 321 319 319 318 319 322 323 322 322
321 322 324 325 324 323 322 319 319 319 318 315 316 316 318 319 320 321 322 322 321 322 319 325 326 323 317 318 321 314 310 309 312 314 316 316 319 316 320 321 322 322 321
321 322 323 323 322 321 322 321 319 315 312 314 316 318 318 319 319 320 320 321 322 320 322 322 324 324 321 317 320 318 320 318 311 310 315 315 318 317 321 316 318 321 321
320 322 321 321 321 321 321 321 315 315 313 315 315 317 319 321 320 318 320 320 321 320 322 322 322 323 324 319 318 320 319 317 316 312 309 314 315 317 315 315 316 319 319
318 317 317 318 320 318 320 319 317 316 316 313 315 313 314 315 315 318 319 320 321 322 321 321 322 322 322 321 320 321 319 315 315 314 311 313 312 312 315 317 317 318 318
Wind_Speed
20 17 10 12 9 10 12 12 13 12 12 13 14 15 14 12 11 13 14 15 15 16 16 17 17 17 17 17 17 16 15 13 10 8 4 2 6 5 3 4 7 8 10
18 16 8 10 10 9 9 11 12 11 12 13 14 13 12 11 12 12 13 14 15 15 16 17 17 17 17 17 17 16 14 13 13 13 7 9 12 7 5 5 10 10 10
16 13 12 8 10 11 9 8 9 10 12 13 12 13 12 12 13 12 12 14 14 15 17 17 17 17 17 17 17 17 16 15 16 17 20 8 15 11 6 6 8 8 9
12 8 10 8 8 11 8 9 10 10 12 11 10 11 12 12 13 13 13 13 14 15 16 17 16 16 17 17 17 16 17 17 18 19 9 12 15 13 11 8 8 8 7
14 10 12 9 7 9 9 8 8 10 11 10 10 10 10 10 11 11 12 13 13 15 15 15 15 15 15 15 15 16 17 18 20 14 11 9 6 11 10 10 6 8 11
18 15 12 10 8 7 8 8 10 10 9 9 10 11 11 11 9 9 11 12 13 13 14 13 14 14 14 14 14 14 15 17 23 10 8 7 11 11 10 8 7 7 7
12 17 11 9 8 8 9 8 10 10 9 9 9 10 11 11 10 10 9 10 11 11 11 11 12 11 12 12 13 13 13 15 13 8 8 6 12 11 8 5 5 4 4
13 7 11 11 7 6 9 7 8 10 9 9 9 10 10 10 11 10 8 8 8 8 9 9 10 10 9 10 11 12 13 15 13 8 8 9 14 12 8 8 4 4 4
16 10 5 10 11 10 8 8 8 10 9 9 8 8 9 10 10 9 8 7 6 7 7 7 7 6 5 5 6 9 11 13 12 7 7 8 13 10 10 10 8 7 7
9 8 11 7 5 7 9 10 10 9 8 8 7 7 8 8 8 7 8 7 5 5 5 5 3 2 4 3 1 4 10 15 10 8 6 8 11 9 8 10 10 9 10
9 8 9 8 7 7 7 8 10 10 8 5 6 5 8 9 9 11 10 8 4 5 4 3 2 7 11 11 9 7 10 7 10 6 5 11 10 9 9 8 8 9 11
11 9 7 6 3 6 6 6 6 7 7 6 9 9 10 5 2 6 7 10 10 8 7 8 10 12 12 8 4 5 7 10 8 7 7 11 9 9 10 8 8 7 11
13 10 13 11 9 8 5 2 3 2 2 4 11 9 7 5 6 8 7 9 8 11 8 10 11 7 10 8 8 8 9 8 7 6 9 11 7 8 9 8 6 4 7
13 13 13 13 10 10 7 4 0 7 1 3 2 5 8 8 6 4 7 3 2 2 10 6 8 10 10 12 10 9 9 8 6 6 5 9 6 7 10 2 2 3 6
13 14 14 14 13 11 11 8 6 5 4 8 10 12 10 10 10 10 9 9 8 7 9 8 9 9 8 10 12 7 8 10 8 6 6 8 7 2 5 5 2 4 6
12 12 11 12 12 10 9 8 5 6 6 8 7 7 8 7 7 7 5 5 6 7 7 5 5 7 7 10 11 7 8 9 7 7 6 3 10 7 2 3 5 4 6
13 14 13 12 13 12 12 10 9 7 7 5 6 7 7 7 6 7 5 5 2 2 4 3 4 5 6 8 10 9 9 8 8 7 6 7 8 10 8 6 3 3 5
11 10 9 7 9 8 7 5 4 4 3 4 3 5 5 5 4 5 4 4 4 3 3 2 4 4 4 5 5 7 8 10 9 6 7 4 7 0 8 6 5 2 3
6 11 12 12 11 9 7 6 3 2 2 2 1 1 2 3 4 3 3 3 2 2 3 3 4 4 4 3 6 8 10 9 6 7 5 5 8 5 5 8 7 5 2
9 7 7 9 11 9 7 8 7 7 8 3 2 4 8 7 8 5 6 7 6 6 5 7 7 5 5 6 8 10 8 5 6 5 3 5 4 6 7 2 3 5 3
6 9 9 9 10 10 9 8 8 8 7 7 4 4 6 5 10 7 9 8 6 9 9 9 7 8 8 9 10 9 8 7 5 6 3 3 5 5 5 7 2 3 5
5 6 8 10 10 9 9 7 7 9 7 5 1 7 7 7 10 11 10 8 9 8 11 7 9 7 8 4 7 9 7 2 0 6 2 3 3 4 3 3 6 6 6
6 7 9 10 10 10 11 9 8 9 7 9 10 6 8 9 7 6 9 7 10 9 6 5 7 9 9 7 7 6 4 2 4 3 4 2 2 3 2 2 1 1 4
7 8 8 8 9 9 11 10 11 10 9 8 4 4 7 6 5 11 7 11 9 10 10 7 5 6 8 8 2 4 8 6 3 1 1 4 4 2 3 4 5 3 1
4 6 10 8 9 13 11 13 8 9 8 7 7 9 5 5 4 9 6 9 8 7 9 8 7 6 5 5 4 3 4 4 5 4 4 3 3 3 4 5 5 4 3
7 12 13 11 11 13 10 8 9 11 11 11 10 9 8 7 8 6 7 9 7 7 6 6 6 6 6 6 5 2 3 3 3 3 3 2 4 4 4 5 5 5 3
Wind_Direction
91 108 113 116 107 105 114 112 111 111 114 108 99 96 99 109 107 102 99 98 94 90 87 85 80 72 66 60 52 43 35 25 7 353 13 107 112 71 21 8 342 92 78
102 106 111 116 112 94 106 115 111 109 100 101 97 101 112 111 105 99 98 96 93 90 89 87 82 76 70 62 53 44 29 9 349 333 323 118 106 70 40 43 29 71 71
96 118 138 112 115 109 106 117 119 112 107 106 117 122 118 112 109 103 101 100 93 91 90 85 80 75 69 61 51 39 22 2 343 327 314 162 88 62 55 55 56 65 69
93 109 118 110 110 110 103 100 115 120 110 111 114 119 119 118 116 114 110 103 96 96 92 88 81 72 66 57 48 36 18 359 338 327 17 5 83 66 56 66 75 75 95
103 98 104 106 106 111 115 119 114 107 107 117 121 117 112 112 115 116 112 106 99 95 87 82 79 71 64 57 45 30 15 354 331 308 6 22 53 69 52 35 80 77 34
106 101 104 105 109 125 119 123 114 108 115 120 120 119 119 117 109 108 106 103 98 92 88 82 75 68 60 49 41 26 11 350 321 35 7 17 51 57 44 31 40 49 55
76 96 108 119 124 124 123 126 124 116 116 120 122 120 117 117 113 107 106 106 99 93 90 85 79 68 54 43 32 19 2 341 323 20 3 351 59 45 23 5 9 23 39
93 92 125 123 119 113 114 116 115 113 115 116 123 123 122 120 122 120 119 113 108 99 90 86 75 61 49 36 24 7 348 330 319 27 359 67 48 24 352 327 292 302 308
77 82 193 107 118 118 107 105 108 110 111 114 120 128 132 132 131 131 129 133 130 115 98 93 79 59 39 27 21 354 326 311 304 354 340 49 43 22 344 326 306 282 284
88 58 77 79 78 79 112 121 124 119 118 123 133 146 150 144 147 152 160 145 138 135 109 105 86 12 291 279 286 297 312 289 289 346 18 58 35 1 336 323 316 323 308
58 36 72 50 65 84 115 142 136 126 118 136 161 188 194 203 182 168 112 130 150 151 141 151 213 261 271 238 227 254 290 349 337 343 21 58 28 354 328 314 312 324 314
48 37 23 25 93 126 129 123 115 87 39 309 214 183 237 237 284 11 125 155 167 180 194 209 228 248 260 349 326 297 343 342 324 338 67 60 35 347 326 313 302 341 6
50 28 27 26 17 91 40 77 111 106 46 318 320 324 282 313 240 221 221 189 192 189 216 199 220 245 12 345 339 326 332 326 323 337 70 71 38 338 319 305 299 335 27
58 44 37 38 31 30 101 143 128 28 41 306 296 12 353 298 253 304 313 6 90 101 7 347 35 13 350 325 316 315 325 321 320 319 80 89 49 333 315 255 299 5 25
61 52 49 44 42 31 38 40 57 48 18 34 32 22 15 1 4 5 9 25 20 20 19 14 2 359 326 308 292 316 312 304 314 300 311 123 111 12 7 47 28 41 11
56 51 45 52 50 49 51 51 50 46 30 46 34 29 19 4 356 -0 7 15 13 10 5 0 348 323 312 306 301 301 298 295 307 298 316 188 155 159 133 27 18 3 1
36 42 39 46 43 33 34 27 27 22 24 21 30 26 10 2 360 348 332 320 325 1 0 352 324 310 293 285 323 305 311 287 275 289 301 294 152 177 173 147 92 9 353
58 50 59 54 58 68 65 63 75 43 49 23 17 354 350 337 1 338 352 335 306 234 201 194 269 299 298 306 313 305 284 285 275 302 263 334 310 11 162 151 124 81 3
67 49 45 36 35 22 39 5 12 142 40 1 138 325 334 293 276 249 248 257 238 242 217 233 217 224 294 297 285 267 258 269 274 279 344 288 280 248 107 165 170 153 136
66 66 58 38 24 5 13 348 1 341 336 290 50 11 359 333 304 271 274 246 234 245 223 230 233 221 242 263 266 267 282 274 290 271 271 275 293 341 297 41 195 152 89
80 37 30 32 25 5 7 356 356 348 339 342 55 349 333 294 324 297 302 315 244 233 234 235 221 229 230 230 249 260 247 224 234 259 215 0 37 310 358 11 327 185 161
77 46 25 25 23 19 4 5 359 328 322 342 331 334 42 341 339 331 341 319 312 318 298 262 247 245 245 257 263 292 293 111 352 248 214 272 71 301 45 18 21 326 319
68 35 27 24 14 32 6 357 3 317 332 12 347 15 346 354 326 278 298 297 300 293 299 303 276 234 244 237 240 273 282 292 216 163 265 219 169 305 197 218 231 351 346
21 21 38 22 14 13 2 345 354 339 0 344 338 357 314 315 298 309 326 305 315 303 303 325 285 249 260 278 249 295 306 336 319 298 235 112 246 310 210 284 182 157 229
8 39 25 3 359 10 359 356 5 352 323 325 328 330 343 301 295 278 322 307 310 303 309 307 303 268 276 275 295 285 265 287 290 308 280 324 276 274 276 317 332 80 89
11 19 359 2 15 0 351 13 336 333 335 328 326 322 335 328 325 358 339 318 319 318 327 328 325 296 280 265 260 259 266 259 239 255 287 311 287 260 297 306 77 63 22